Time,TemperatureF,DewpointF,PressureIn,WindDirection,WindDirectionDegrees,WindSpeedMPH,WindSpeedGustMPH,Humidity,HourlyPrecipIn,Conditions,Clouds,dailyrainin,SoftwareType,DateUTC
2013-04-27 00:01:00,70.9,58.9,30.23,ESE,112,0.0,0.0,65,0.00,,,0.00,WUHU21623XXSP,2013-04-27 04:01:00,
2013-04-27 00:06:00,70.9,58.9,30.23,ESE,112,0.0,0.0,65,0.00,,,0.00,WUHU21623XXSP,2013-04-27 04:06:00,
2013-04-27 00:11:00,70.7,58.7,30.23,ESE,112,0.0,0.0,65,0.00,,,0.00,WUHU21623XXSP,2013-04-27 04:11:00,
2013-04-27 00:16:00,70.5,58.9,30.23,ESE,112,0.0,0.0,66,0.00,,,0.00,WUHU21623XXSP,2013-04-27 04:16:00,
2013-04-27 00:21:00,70.5,58.9,30.23,ESE,112,0.0,0.0,66,0.00,,,0.00,WUHU21623XXSP,2013-04-27 04:21:00,
2013-04-27 00:26:00,70.3,58.7,30.22,ESE,112,0.0,0.0,66,0.00,,,0.00,WUHU21623XXSP,2013-04-27 04:26:00,
2013-04-27 00:31:00,70.2,58.6,30.23,ESE,112,0.0,0.0,66,0.00,,,0.00,WUHU21623XXSP,2013-04-27 04:31:00,
2013-04-27 00:36:00,70.0,58.5,30.22,East,90,0.0,0.0,66,0.00,,,0.00,WUHU21623XXSP,2013-04-27 04:36:00,
2013-04-27 00:41:00,70.2,58.6,30.22,ESE,112,0.0,0.0,66,0.00,,,0.00,WUHU21623XXSP,2013-04-27 04:41:00,
2013-04-27 00:46:00,70.0,58.5,30.22,ESE,112,0.0,0.0,66,0.00,,,0.00,WUHU21623XXSP,2013-04-27 04:46:00,
2013-04-27 00:53:00,69.8,58.3,30.22,ESE,112,0.0,0.0,66,0.00,,,0.00,WUHU21623XXSP,2013-04-27 04:53:00,
2013-04-27 00:58:00,69.4,57.9,30.22,ESE,112,0.0,0.0,66,0.00,,,0.00,WUHU21623XXSP,2013-04-27 04:58:00,
2013-04-27 01:03:00,69.4,57.9,30.22,ESE,112,0.0,0.0,66,0.00,,,0.00,WUHU21623XXSP,2013-04-27 05:03:00,
2013-04-27 01:10:00,69.4,57.9,30.22,ESE,112,0.0,0.0,66,0.00,,,0.00,WUHU21623XXSP,2013-04-27 05:10:00,
2013-04-27 01:15:00,69.3,58.2,30.22,ESE,112,0.0,0.0,67,0.00,,,0.00,WUHU21623XXSP,2013-04-27 05:15:00,
2013-04-27 01:20:00,69.1,58.0,30.21,ESE,112,0.0,0.0,67,0.00,,,0.00,WUHU21623XXSP,2013-04-27 05:20:00,
2013-04-27 01:25:00,68.9,57.8,30.22,ESE,112,0.0,0.0,67,0.00,,,0.00,WUHU21623XXSP,2013-04-27 05:25:00,
2013-04-27 01:30:00,68.9,57.8,30.21,ESE,112,0.0,0.0,67,0.00,,,0.00,WUHU21623XXSP,2013-04-27 05:30:00,
2013-04-27 01:35:00,68.7,58.1,30.21,ESE,112,0.0,0.0,69,0.00,,,0.00,WUHU21623XXSP,2013-04-27 05:35:00,
2013-04-27 01:40:00,68.7,58.1,30.21,ESE,112,0.0,0.0,69,0.00,,,0.00,WUHU21623XXSP,2013-04-27 05:40:00,
2013-04-27 01:45:00,68.5,58.3,30.21,ESE,112,0.0,0.0,70,0.00,,,0.00,WUHU21623XXSP,2013-04-27 05:45:00,
2013-04-27 01:50:00,68.4,58.2,30.21,ESE,112,0.0,0.0,70,0.00,,,0.00,WUHU21623XXSP,2013-04-27 05:50:00,
2013-04-27 01:55:00,68.4,58.2,30.21,ESE,112,0.0,0.0,70,0.00,,,0.00,WUHU21623XXSP,2013-04-27 05:55:00,
2013-04-27 02:00:00,68.2,58.0,30.21,ESE,112,0.0,0.0,70,0.00,,,0.00,WUHU21623XXSP,2013-04-27 06:00:00,
2013-04-27 02:05:00,68.2,58.0,30.21,ESE,112,0.0,0.0,70,0.00,,,0.00,WUHU21623XXSP,2013-04-27 06:05:00,
2013-04-27 02:10:00,68.2,58.0,30.21,East,90,0.0,0.0,70,0.00,,,0.00,WUHU21623XXSP,2013-04-27 06:10:00,
2013-04-27 02:15:00,67.8,57.6,30.21,East,90,0.0,0.0,70,0.00,,,0.00,WUHU21623XXSP,2013-04-27 06:15:00,
2013-04-27 02:20:00,68.0,58.3,30.21,East,90,0.0,0.0,71,0.00,,,0.00,WUHU21623XXSP,2013-04-27 06:20:00,
2013-04-27 02:25:00,67.6,57.9,30.21,ENE,67,0.0,0.0,71,0.00,,,0.00,WUHU21623XXSP,2013-04-27 06:25:00,
2013-04-27 02:30:00,67.6,57.9,30.21,ENE,67,0.0,0.0,71,0.00,,,0.00,WUHU21623XXSP,2013-04-27 06:30:00,
2013-04-27 02:35:00,67.5,57.8,30.20,ESE,112,0.0,0.0,71,0.00,,,0.00,WUHU21623XXSP,2013-04-27 06:35:00,
2013-04-27 02:40:00,67.5,57.8,30.20,ESE,112,0.0,0.0,71,0.00,,,0.00,WUHU21623XXSP,2013-04-27 06:40:00,
2013-04-27 02:45:00,67.1,57.4,30.20,NE,45,0.0,0.0,71,0.00,,,0.00,WUHU21623XXSP,2013-04-27 06:45:00,
2013-04-27 02:50:00,67.1,57.0,30.20,NE,45,0.0,0.0,70,0.00,,,0.00,WUHU21623XXSP,2013-04-27 06:50:00,
2013-04-27 02:55:00,66.9,57.2,30.20,NE,45,0.0,0.0,71,0.00,,,0.00,WUHU21623XXSP,2013-04-27 06:55:00,
2013-04-27 03:00:00,66.9,57.6,30.20,NE,45,0.0,0.0,72,0.00,,,0.00,WUHU21623XXSP,2013-04-27 07:00:00,
2013-04-27 03:05:00,66.9,57.6,30.20,NE,45,0.0,0.0,72,0.00,,,0.00,WUHU21623XXSP,2013-04-27 07:05:00,
2013-04-27 03:14:00,66.9,57.6,30.20,NE,45,0.0,0.0,72,0.00,,,0.00,WUHU21623XXSP,2013-04-27 07:14:00,
2013-04-27 03:19:00,66.6,57.3,30.20,NE,45,0.0,0.0,72,0.00,,,0.00,WUHU21623XXSP,2013-04-27 07:19:00,
2013-04-27 03:24:00,66.4,57.1,30.20,NNE,22,0.0,0.0,72,0.00,,,0.00,WUHU21623XXSP,2013-04-27 07:24:00,
2013-04-27 03:29:00,66.2,56.9,30.20,NE,45,0.0,0.0,72,0.00,,,0.00,WUHU21623XXSP,2013-04-27 07:29:00,
2013-04-27 03:34:00,65.8,56.6,30.20,NE,45,0.0,0.0,72,0.00,,,0.00,WUHU21623XXSP,2013-04-27 07:34:00,
2013-04-27 03:39:00,65.7,56.5,30.20,NE,45,0.0,0.0,72,0.00,,,0.00,WUHU21623XXSP,2013-04-27 07:39:00,
2013-04-27 03:44:00,65.7,56.5,30.20,NE,45,0.0,0.0,72,0.00,,,0.00,WUHU21623XXSP,2013-04-27 07:44:00,
2013-04-27 03:49:00,65.5,56.3,30.19,NNE,22,0.0,0.0,72,0.00,,,0.00,WUHU21623XXSP,2013-04-27 07:49:00,
2013-04-27 03:54:00,65.5,56.3,30.19,NNE,22,0.0,0.0,72,0.00,,,0.00,WUHU21623XXSP,2013-04-27 07:54:00,
2013-04-27 03:59:00,65.3,56.5,30.19,NNE,22,0.0,0.0,73,0.00,,,0.00,WUHU21623XXSP,2013-04-27 07:59:00,
2013-04-27 04:04:00,65.3,56.5,30.19,NNE,22,0.0,0.0,73,0.00,,,0.00,WUHU21623XXSP,2013-04-27 08:04:00,
2013-04-27 04:10:00,65.3,56.5,30.19,NNE,22,0.0,0.0,73,0.00,,,0.00,WUHU21623XXSP,2013-04-27 08:10:00,
2013-04-27 04:15:00,65.1,56.7,30.19,NNE,22,0.0,0.0,74,0.00,,,0.00,WUHU21623XXSP,2013-04-27 08:15:00,
2013-04-27 04:20:00,65.1,56.7,30.19,NNE,22,0.0,0.0,74,0.00,,,0.00,WUHU21623XXSP,2013-04-27 08:20:00,
2013-04-27 04:25:00,65.1,56.7,30.19,NNE,22,0.0,0.0,74,0.00,,,0.00,WUHU21623XXSP,2013-04-27 08:25:00,
2013-04-27 04:30:00,64.9,56.9,30.19,East,90,0.0,0.0,75,0.00,,,0.00,WUHU21623XXSP,2013-04-27 08:30:00,
2013-04-27 04:35:00,64.9,56.9,30.19,ENE,67,0.0,0.0,75,0.00,,,0.00,WUHU21623XXSP,2013-04-27 08:35:00,
2013-04-27 04:40:00,64.9,56.9,30.19,East,90,0.0,0.0,75,0.00,,,0.00,WUHU21623XXSP,2013-04-27 08:40:00,
2013-04-27 04:45:00,64.9,56.9,30.19,East,90,0.0,0.0,75,0.00,,,0.00,WUHU21623XXSP,2013-04-27 08:45:00,
2013-04-27 04:50:00,64.8,56.8,30.19,NE,45,0.0,0.0,75,0.00,,,0.00,WUHU21623XXSP,2013-04-27 08:50:00,
2013-04-27 04:55:00,64.6,56.6,30.19,NNE,22,0.0,0.0,75,0.00,,,0.00,WUHU21623XXSP,2013-04-27 08:55:00,
2013-04-27 05:00:00,64.6,56.6,30.19,NNE,22,0.0,0.0,75,0.00,,,0.00,WUHU21623XXSP,2013-04-27 09:00:00,
2013-04-27 05:05:00,64.4,56.8,30.19,NNE,22,0.0,0.0,76,0.00,,,0.00,WUHU21623XXSP,2013-04-27 09:05:00,
2013-04-27 05:10:00,64.2,56.6,30.19,ENE,67,0.0,0.0,76,0.00,,,0.00,WUHU21623XXSP,2013-04-27 09:10:00,
2013-04-27 05:15:00,64.0,56.4,30.19,NNE,22,0.0,0.0,76,0.00,,,0.00,WUHU21623XXSP,2013-04-27 09:15:00,
2013-04-27 05:20:00,64.0,56.4,30.18,ESE,112,0.0,0.0,76,0.00,,,0.00,WUHU21623XXSP,2013-04-27 09:20:00,
2013-04-27 05:25:00,64.0,56.8,30.18,ENE,67,0.0,0.0,77,0.00,,,0.00,WUHU21623XXSP,2013-04-27 09:25:00,
2013-04-27 05:30:00,64.0,56.8,30.18,East,90,0.0,0.0,77,0.00,,,0.00,WUHU21623XXSP,2013-04-27 09:30:00,
2013-04-27 05:35:00,64.0,56.8,30.18,ENE,67,0.0,0.0,77,0.00,,,0.00,WUHU21623XXSP,2013-04-27 09:35:00,
2013-04-27 05:40:00,64.0,56.8,30.18,NNW,337,0.0,0.0,77,0.00,,,0.00,WUHU21623XXSP,2013-04-27 09:40:00,
2013-04-27 05:45:00,64.0,56.8,30.18,NNW,337,0.0,0.0,77,0.00,,,0.00,WUHU21623XXSP,2013-04-27 09:45:00,
2013-04-27 05:50:00,63.9,56.7,30.18,North,0,0.0,0.0,77,0.00,,,0.00,WUHU21623XXSP,2013-04-27 09:50:00,
2013-04-27 05:55:00,63.9,57.0,30.18,NE,45,0.0,0.0,78,0.00,,,0.00,WUHU21623XXSP,2013-04-27 09:55:00,
2013-04-27 06:00:00,63.7,56.8,30.18,NE,45,0.0,0.0,78,0.00,,,0.00,WUHU21623XXSP,2013-04-27 10:00:00,
2013-04-27 06:05:00,63.5,56.6,30.19,ENE,67,0.0,0.0,78,0.00,,,0.00,WUHU21623XXSP,2013-04-27 10:05:00,
2013-04-27 06:10:00,63.5,56.6,30.19,NE,45,0.0,0.0,78,0.00,,,0.00,WUHU21623XXSP,2013-04-27 10:10:00,
2013-04-27 06:15:00,63.5,56.6,30.19,NNE,22,0.0,0.0,78,0.00,,,0.00,WUHU21623XXSP,2013-04-27 10:15:00,
2013-04-27 06:20:00,63.3,56.4,30.19,SE,135,0.0,0.0,78,0.00,,,0.00,WUHU21623XXSP,2013-04-27 10:20:00,
2013-04-27 06:25:00,63.1,56.3,30.19,NNW,337,0.0,0.0,78,0.00,,,0.00,WUHU21623XXSP,2013-04-27 10:25:00,
2013-04-27 06:31:00,63.0,56.5,30.19,NE,45,0.0,0.0,79,0.00,,,0.00,WUHU21623XXSP,2013-04-27 10:31:00,
2013-04-27 06:36:00,62.8,56.3,30.20,NE,45,0.0,0.0,79,0.00,,,0.00,WUHU21623XXSP,2013-04-27 10:36:00,
2013-04-27 06:41:00,62.8,56.3,30.19,NE,45,0.0,0.0,79,0.00,,,0.00,WUHU21623XXSP,2013-04-27 10:41:00,
2013-04-27 06:46:00,62.8,56.3,30.19,ENE,67,0.0,0.0,79,0.00,,,0.00,WUHU21623XXSP,2013-04-27 10:46:00,
2013-04-27 06:51:00,62.8,56.7,30.19,NE,45,0.0,0.0,80,0.00,,,0.00,WUHU21623XXSP,2013-04-27 10:51:00,
2013-04-27 06:56:00,62.8,56.7,30.19,ESE,112,0.0,0.0,80,0.00,,,0.00,WUHU21623XXSP,2013-04-27 10:56:00,
2013-04-27 07:01:00,62.6,56.5,30.19,ENE,67,0.0,0.0,80,0.00,,,0.00,WUHU21623XXSP,2013-04-27 11:01:00,
2013-04-27 07:06:00,62.8,57.0,30.20,ENE,67,0.0,0.0,81,0.00,,,0.00,WUHU21623XXSP,2013-04-27 11:06:00,
2013-04-27 07:11:00,62.8,57.0,30.20,ENE,67,0.0,0.0,81,0.00,,,0.00,WUHU21623XXSP,2013-04-27 11:11:00,
2013-04-27 07:16:00,63.0,57.2,30.20,NNE,22,0.0,0.0,81,0.00,,,0.00,WUHU21623XXSP,2013-04-27 11:16:00,
2013-04-27 07:21:00,63.1,57.3,30.20,NNE,22,0.0,0.0,81,0.00,,,0.00,WUHU21623XXSP,2013-04-27 11:21:00,
2013-04-27 07:26:00,63.1,57.3,30.20,NNE,22,0.0,0.0,81,0.00,,,0.00,WUHU21623XXSP,2013-04-27 11:26:00,
2013-04-27 07:31:00,63.0,57.2,30.21,NE,45,0.0,0.0,81,0.00,,,0.00,WUHU21623XXSP,2013-04-27 11:31:00,
2013-04-27 07:36:00,63.0,57.2,30.21,NE,45,0.0,0.0,81,0.00,,,0.00,WUHU21623XXSP,2013-04-27 11:36:00,
2013-04-27 07:41:00,63.0,57.2,30.21,NE,45,0.0,0.0,81,0.00,,,0.00,WUHU21623XXSP,2013-04-27 11:41:00,
2013-04-27 07:46:00,63.3,57.5,30.21,East,90,0.0,0.0,81,0.00,,,0.00,WUHU21623XXSP,2013-04-27 11:46:00,
2013-04-27 07:51:00,63.5,57.7,30.22,North,0,0.0,0.0,81,0.00,,,0.00,WUHU21623XXSP,2013-04-27 11:51:00,
2013-04-27 07:56:00,63.5,57.7,30.22,ENE,67,0.0,0.0,81,0.00,,,0.00,WUHU21623XXSP,2013-04-27 11:56:00,
2013-04-27 08:01:00,63.5,57.7,30.22,ENE,67,0.0,0.0,81,0.00,,,0.00,WUHU21623XXSP,2013-04-27 12:01:00,
2013-04-27 08:06:00,63.7,57.9,30.22,ENE,67,0.0,0.0,81,0.00,,,0.00,WUHU21623XXSP,2013-04-27 12:06:00,
2013-04-27 08:11:00,63.9,58.1,30.22,ENE,67,0.0,0.0,81,0.00,,,0.00,WUHU21623XXSP,2013-04-27 12:11:00,
2013-04-27 08:16:00,64.2,58.4,30.22,NE,45,0.0,0.0,81,0.00,,,0.00,WUHU21623XXSP,2013-04-27 12:16:00,
2013-04-27 08:21:00,64.6,58.8,30.22,ENE,67,0.0,0.0,81,0.00,,,0.00,WUHU21623XXSP,2013-04-27 12:21:00,
2013-04-27 08:26:00,65.1,59.6,30.22,ENE,67,0.0,0.0,82,0.00,,,0.00,WUHU21623XXSP,2013-04-27 12:26:00,
2013-04-27 08:31:00,65.3,59.5,30.22,ESE,112,0.0,0.0,81,0.00,,,0.00,WUHU21623XXSP,2013-04-27 12:31:00,
2013-04-27 08:36:00,65.8,59.6,30.23,NE,45,0.0,0.0,80,0.00,,,0.00,WUHU21623XXSP,2013-04-27 12:36:00,
2013-04-27 08:41:00,66.6,60.4,30.23,NE,45,0.0,0.0,80,0.00,,,0.00,WUHU21623XXSP,2013-04-27 12:41:00,
2013-04-27 08:46:00,66.9,60.7,30.23,ENE,67,0.0,0.0,80,0.00,,,0.00,WUHU21623XXSP,2013-04-27 12:46:00,
2013-04-27 08:51:00,67.5,60.9,30.23,ENE,67,0.0,0.0,79,0.00,,,0.00,WUHU21623XXSP,2013-04-27 12:51:00,
2013-04-27 08:56:00,68.2,61.2,30.23,NE,45,0.0,0.0,78,0.00,,,0.00,WUHU21623XXSP,2013-04-27 12:56:00,
2013-04-27 09:01:00,68.4,61.4,30.23,East,90,0.0,0.0,78,0.00,,,0.00,WUHU21623XXSP,2013-04-27 13:01:00,
2013-04-27 09:06:00,68.7,61.3,30.23,ESE,112,0.0,0.0,77,0.00,,,0.00,WUHU21623XXSP,2013-04-27 13:06:00,
2013-04-27 09:11:00,69.3,61.1,30.23,ENE,67,0.0,0.0,75,0.00,,,0.00,WUHU21623XXSP,2013-04-27 13:11:00,
2013-04-27 09:16:00,69.4,61.2,30.23,East,90,0.0,0.0,75,0.00,,,0.00,WUHU21623XXSP,2013-04-27 13:16:00,
2013-04-27 09:21:00,69.8,61.2,30.23,East,90,0.0,0.0,74,0.00,,,0.00,WUHU21623XXSP,2013-04-27 13:21:00,
2013-04-27 09:26:00,70.0,61.4,30.23,ENE,67,0.0,0.0,74,0.00,,,0.00,WUHU21623XXSP,2013-04-27 13:26:00,
2013-04-27 09:31:00,70.2,61.2,30.23,NNE,22,0.0,0.0,73,0.00,,,0.00,WUHU21623XXSP,2013-04-27 13:31:00,
2013-04-27 09:36:00,70.5,61.5,30.23,NE,45,0.0,0.0,73,0.00,,,0.00,WUHU21623XXSP,2013-04-27 13:36:00,
2013-04-27 09:41:00,70.7,61.3,30.23,ESE,112,0.0,0.0,72,0.00,,,0.00,WUHU21623XXSP,2013-04-27 13:41:00,
2013-04-27 09:43:00,70.7,61.3,30.23,ESE,112,0.0,0.0,72,0.00,,,0.00,WUHU21623XXSP,2013-04-27 13:43:00,
2013-04-27 09:45:00,70.7,60.9,30.23,ESE,112,0.0,0.0,71,0.00,,,0.00,WUHU21623XXSP,2013-04-27 13:45:00,
2013-04-27 09:48:00,70.9,61.1,30.23,ENE,67,0.0,0.0,71,0.00,,,0.00,WUHU21623XXSP,2013-04-27 13:48:00,
2013-04-27 09:53:00,71.2,61.3,30.23,ESE,112,0.0,0.0,71,0.00,,,0.00,WUHU21623XXSP,2013-04-27 13:53:00,
2013-04-27 09:58:00,71.8,62.3,30.22,SE,135,0.0,0.0,72,0.00,,,0.00,WUHU21623XXSP,2013-04-27 13:58:00,
2013-04-27 10:03:00,72.0,62.9,30.23,ENE,67,0.0,0.0,73,0.00,,,0.00,WUHU21623XXSP,2013-04-27 14:03:00,
2013-04-27 10:08:00,72.1,63.0,30.23,ESE,112,0.0,0.0,73,0.00,,,0.00,WUHU21623XXSP,2013-04-27 14:08:00,
2013-04-27 10:13:00,72.5,63.8,30.23,East,90,0.0,0.0,74,0.00,,,0.00,WUHU21623XXSP,2013-04-27 14:13:00,
2013-04-27 10:18:00,72.9,63.8,30.23,ESE,112,0.0,0.0,73,0.00,,,0.00,WUHU21623XXSP,2013-04-27 14:18:00,
2013-04-27 10:23:00,73.2,64.1,30.23,ESE,112,0.0,0.0,73,0.00,,,0.00,WUHU21623XXSP,2013-04-27 14:23:00,
2013-04-27 10:28:00,73.6,64.1,30.23,NNE,22,0.0,0.0,72,0.00,,,0.00,WUHU21623XXSP,2013-04-27 14:28:00,
2013-04-27 10:33:00,73.6,64.1,30.23,ENE,67,0.0,0.0,72,0.00,,,0.00,WUHU21623XXSP,2013-04-27 14:33:00,
2013-04-27 10:38:00,73.8,64.3,30.23,East,90,0.0,0.0,72,0.00,,,0.00,WUHU21623XXSP,2013-04-27 14:38:00,
2013-04-27 10:43:00,74.1,64.1,30.22,ESE,112,0.0,0.0,71,0.00,,,0.00,WUHU21623XXSP,2013-04-27 14:43:00,
2013-04-27 10:48:00,74.3,63.9,30.22,ESE,112,0.0,0.0,70,0.00,,,0.00,WUHU21623XXSP,2013-04-27 14:48:00,
2013-04-27 10:53:00,75.0,64.1,30.22,ESE,112,0.0,0.0,69,0.00,,,0.00,WUHU21623XXSP,2013-04-27 14:53:00,
2013-04-27 10:58:00,75.7,64.4,30.22,ESE,112,0.0,0.0,67,0.00,,,0.00,WUHU21623XXSP,2013-04-27 14:58:00,
2013-04-27 11:03:00,76.1,64.3,30.22,SE,135,0.0,0.0,66,0.00,,,0.00,WUHU21623XXSP,2013-04-27 15:03:00,
2013-04-27 11:08:00,76.6,63.8,30.22,ESE,112,0.0,0.0,64,0.00,,,0.00,WUHU21623XXSP,2013-04-27 15:08:00,
2013-04-27 11:13:00,77.4,64.6,30.22,ESE,112,0.0,0.0,64,0.00,,,0.00,WUHU21623XXSP,2013-04-27 15:13:00,
2013-04-27 11:18:00,77.7,64.4,30.22,SE,135,0.0,0.0,63,0.00,,,0.00,WUHU21623XXSP,2013-04-27 15:18:00,
2013-04-27 11:23:00,78.6,63.7,30.22,ESE,112,0.0,0.0,60,0.00,,,0.00,WUHU21623XXSP,2013-04-27 15:23:00,
2013-04-27 11:28:00,79.2,64.3,30.22,ESE,112,0.0,0.0,60,0.00,,,0.00,WUHU21623XXSP,2013-04-27 15:28:00,
2013-04-27 11:33:00,79.5,64.1,30.22,ESE,112,0.0,0.0,59,0.00,,,0.00,WUHU21623XXSP,2013-04-27 15:33:00,
2013-04-27 11:38:00,79.5,63.0,30.22,SE,135,0.0,0.0,57,0.00,,,0.00,WUHU21623XXSP,2013-04-27 15:38:00,
2013-04-27 11:43:00,80.2,63.6,30.22,SE,135,0.0,0.0,57,0.00,,,0.00,WUHU21623XXSP,2013-04-27 15:43:00,
2013-04-27 11:48:00,80.6,64.0,30.22,ESE,112,0.0,0.0,57,0.00,,,0.00,WUHU21623XXSP,2013-04-27 15:48:00,
2013-04-27 11:53:00,81.0,63.3,30.22,SSE,157,0.0,0.0,55,0.00,,,0.00,WUHU21623XXSP,2013-04-27 15:53:00,
2013-04-27 11:58:00,80.8,62.5,30.22,SE,135,0.0,0.0,54,0.00,,,0.00,WUHU21623XXSP,2013-04-27 15:58:00,
2013-04-27 12:03:00,81.5,63.7,30.22,South,180,0.0,0.0,55,0.00,,,0.00,WUHU21623XXSP,2013-04-27 16:03:00,
2013-04-27 12:08:00,82.0,63.6,30.22,South,180,0.0,0.0,54,0.00,,,0.00,WUHU21623XXSP,2013-04-27 16:08:00,
2013-04-27 12:13:00,81.7,62.8,30.22,South,180,0.0,0.0,52,0.00,,,0.00,WUHU21623XXSP,2013-04-27 16:13:00,
2013-04-27 12:18:00,81.7,62.8,30.22,South,180,0.0,0.0,52,0.00,,,0.00,WUHU21623XXSP,2013-04-27 16:18:00,
2013-04-27 12:23:00,81.9,62.9,30.21,South,180,0.0,0.0,52,0.00,,,0.00,WUHU21623XXSP,2013-04-27 16:23:00,
2013-04-27 12:28:00,81.7,63.4,30.21,SSW,202,0.0,0.0,54,0.00,,,0.00,WUHU21623XXSP,2013-04-27 16:28:00,
2013-04-27 12:33:00,82.0,63.6,30.21,South,180,0.0,0.0,54,0.00,,,0.00,WUHU21623XXSP,2013-04-27 16:33:00,
2013-04-27 12:38:00,83.1,64.7,30.20,SSE,157,0.0,0.0,54,0.00,,,0.00,WUHU21623XXSP,2013-04-27 16:38:00,
2013-04-27 12:43:00,82.6,63.6,30.20,SSW,202,0.0,0.0,52,0.00,,,0.00,WUHU21623XXSP,2013-04-27 16:43:00,
2013-04-27 12:48:00,82.8,63.8,30.20,SSE,157,0.0,0.0,52,0.00,,,0.00,WUHU21623XXSP,2013-04-27 16:48:00,
2013-04-27 12:53:00,81.7,62.2,30.20,SSW,202,0.0,0.0,51,0.00,,,0.00,WUHU21623XXSP,2013-04-27 16:53:00,
2013-04-27 12:58:00,81.5,62.6,30.20,SSW,202,0.0,0.0,52,0.00,,,0.00,WUHU21623XXSP,2013-04-27 16:58:00,
2013-04-27 13:03:00,82.0,63.6,30.20,SSW,202,0.0,0.0,54,0.00,,,0.00,WUHU21623XXSP,2013-04-27 17:03:00,
2013-04-27 13:08:00,82.2,63.2,30.20,SSW,202,0.0,0.0,52,0.00,,,0.00,WUHU21623XXSP,2013-04-27 17:08:00,
2013-04-27 13:13:00,82.8,64.4,30.20,SSW,202,0.0,0.0,54,0.00,,,0.00,WUHU21623XXSP,2013-04-27 17:13:00,
2013-04-27 13:18:00,82.8,63.8,30.20,SSE,157,0.0,0.0,52,0.00,,,0.00,WUHU21623XXSP,2013-04-27 17:18:00,
2013-04-27 13:23:00,82.9,63.9,30.19,South,180,0.0,0.0,52,0.00,,,0.00,WUHU21623XXSP,2013-04-27 17:23:00,
2013-04-27 13:28:00,82.2,62.6,30.20,WSW,247,0.0,0.0,51,0.00,,,0.00,WUHU21623XXSP,2013-04-27 17:28:00,
2013-04-27 13:33:00,82.6,64.2,30.19,SW,225,0.0,0.0,54,0.00,,,0.00,WUHU21623XXSP,2013-04-27 17:33:00,
2013-04-27 13:38:00,84.4,64.7,30.19,SSE,157,0.0,0.0,51,0.00,,,0.00,WUHU21623XXSP,2013-04-27 17:38:00,
2013-04-27 13:43:00,84.6,64.2,30.19,South,180,0.0,0.0,50,0.00,,,0.00,WUHU21623XXSP,2013-04-27 17:43:00,
2013-04-27 13:48:00,84.6,63.6,30.19,SSW,202,0.0,0.0,49,0.00,,,0.00,WUHU21623XXSP,2013-04-27 17:48:00,
2013-04-27 13:53:00,83.1,62.2,30.18,SSW,202,0.0,0.0,49,0.00,,,0.00,WUHU21623XXSP,2013-04-27 17:53:00,
2013-04-27 13:58:00,83.3,63.6,30.19,South,180,0.0,0.0,51,0.00,,,0.00,WUHU21623XXSP,2013-04-27 17:58:00,
2013-04-27 14:03:00,83.8,63.5,30.18,SW,225,0.0,0.0,50,0.00,,,0.00,WUHU21623XXSP,2013-04-27 18:03:00,
2013-04-27 14:08:00,84.4,64.0,30.18,SSE,157,0.0,0.0,50,0.00,,,0.00,WUHU21623XXSP,2013-04-27 18:08:00,
2013-04-27 14:13:00,86.2,65.7,30.18,WSW,247,0.0,0.0,50,0.00,,,0.00,WUHU21623XXSP,2013-04-27 18:13:00,
2013-04-27 14:18:00,90.0,65.1,30.18,SW,225,0.0,0.0,44,0.00,,,0.00,WUHU21623XXSP,2013-04-27 18:18:00,
2013-04-27 14:23:00,88.9,62.7,30.18,SSW,202,0.0,0.0,42,0.00,,,0.00,WUHU21623XXSP,2013-04-27 18:23:00,
2013-04-27 14:28:00,87.6,61.5,30.18,SSW,202,0.0,0.0,42,0.00,,,0.00,WUHU21623XXSP,2013-04-27 18:28:00,
2013-04-27 14:33:00,85.6,61.1,30.18,WSW,247,0.0,0.0,44,0.00,,,0.00,WUHU21623XXSP,2013-04-27 18:33:00,
2013-04-27 14:38:00,84.7,61.0,30.18,WSW,247,0.0,0.0,45,0.00,,,0.00,WUHU21623XXSP,2013-04-27 18:38:00,
2013-04-27 14:43:00,84.0,61.7,30.17,South,180,0.0,0.0,47,0.00,,,0.00,WUHU21623XXSP,2013-04-27 18:43:00,
2013-04-27 14:48:00,83.8,62.9,30.17,WSW,247,0.0,0.0,49,0.00,,,0.00,WUHU21623XXSP,2013-04-27 18:48:00,
2013-04-27 14:53:00,83.7,62.1,30.17,SSW,202,0.0,0.0,48,0.00,,,0.00,WUHU21623XXSP,2013-04-27 18:53:00,
2013-04-27 14:58:00,83.5,61.9,30.17,South,180,0.0,0.0,48,0.00,,,0.00,WUHU21623XXSP,2013-04-27 18:58:00,
2013-04-27 15:03:00,83.7,62.8,30.16,SW,225,0.0,0.0,49,0.00,,,0.00,WUHU21623XXSP,2013-04-27 19:03:00,
2013-04-27 15:08:00,83.7,62.8,30.16,SW,225,0.0,0.0,49,0.00,,,0.00,WUHU21623XXSP,2013-04-27 19:08:00,
2013-04-27 15:13:00,83.7,62.8,30.16,SW,225,0.0,0.0,49,0.00,,,0.00,WUHU21623XXSP,2013-04-27 19:13:00,
2013-04-27 15:18:00,83.5,61.9,30.16,SSW,202,0.0,0.0,48,0.00,,,0.00,WUHU21623XXSP,2013-04-27 19:18:00,
2013-04-27 15:23:00,83.3,62.4,30.16,SW,225,0.0,0.0,49,0.00,,,0.00,WUHU21623XXSP,2013-04-27 19:23:00,
2013-04-27 15:28:00,83.5,62.6,30.16,West,270,0.0,0.0,49,0.00,,,0.00,WUHU21623XXSP,2013-04-27 19:28:00,
2013-04-27 15:33:00,83.3,61.7,30.15,WSW,247,0.0,0.0,48,0.00,,,0.00,WUHU21623XXSP,2013-04-27 19:33:00,
2013-04-27 15:38:00,82.9,62.0,30.15,WSW,247,0.0,0.0,49,0.00,,,0.00,WUHU21623XXSP,2013-04-27 19:38:00,
2013-04-27 15:43:00,83.1,62.8,30.15,WSW,247,0.0,0.0,50,0.00,,,0.00,WUHU21623XXSP,2013-04-27 19:43:00,
2013-04-27 15:48:00,82.9,62.7,30.15,WSW,247,0.0,0.0,50,0.00,,,0.00,WUHU21623XXSP,2013-04-27 19:48:00,
2013-04-27 15:53:00,83.3,63.6,30.15,West,270,0.0,0.0,51,0.00,,,0.00,WUHU21623XXSP,2013-04-27 19:53:00,
2013-04-27 15:58:00,83.5,62.6,30.15,WSW,247,0.0,0.0,49,0.00,,,0.00,WUHU21623XXSP,2013-04-27 19:58:00,
2013-04-27 16:03:00,83.1,62.8,30.15,WSW,247,0.0,0.0,50,0.00,,,0.00,WUHU21623XXSP,2013-04-27 20:03:00,
2013-04-27 16:08:00,83.1,62.8,30.15,WSW,247,0.0,0.0,50,0.00,,,0.00,WUHU21623XXSP,2013-04-27 20:08:00,
2013-04-27 16:13:00,82.8,63.2,30.14,West,270,0.0,0.0,51,0.00,,,0.00,WUHU21623XXSP,2013-04-27 20:13:00,
2013-04-27 16:18:00,82.8,63.8,30.14,WSW,247,0.0,0.0,52,0.00,,,0.00,WUHU21623XXSP,2013-04-27 20:18:00,
2013-04-27 16:23:00,82.8,63.2,30.14,WSW,247,0.0,0.0,51,0.00,,,0.00,WUHU21623XXSP,2013-04-27 20:23:00,
2013-04-27 16:28:00,82.4,62.8,30.14,WSW,247,0.0,0.0,51,0.00,,,0.00,WUHU21623XXSP,2013-04-27 20:28:00,
2013-04-27 16:33:00,82.8,63.2,30.14,WSW,247,0.0,0.0,51,0.00,,,0.00,WUHU21623XXSP,2013-04-27 20:33:00,
2013-04-27 16:38:00,83.1,63.5,30.13,West,270,0.0,0.0,51,0.00,,,0.00,WUHU21623XXSP,2013-04-27 20:38:00,
2013-04-27 16:43:00,82.9,62.7,30.13,West,270,0.0,0.0,50,0.00,,,0.00,WUHU21623XXSP,2013-04-27 20:43:00,
2013-04-27 16:48:00,83.1,63.5,30.13,West,270,0.0,0.0,51,0.00,,,0.00,WUHU21623XXSP,2013-04-27 20:48:00,
2013-04-27 16:53:00,83.3,63.0,30.13,WSW,247,0.0,0.0,50,0.00,,,0.00,WUHU21623XXSP,2013-04-27 20:53:00,
2013-04-27 16:58:00,83.7,62.1,30.12,West,270,0.0,0.0,48,0.00,,,0.00,WUHU21623XXSP,2013-04-27 20:58:00,
2013-04-27 17:03:00,83.7,61.5,30.13,WSW,247,0.0,0.0,47,0.00,,,0.00,WUHU21623XXSP,2013-04-27 21:03:00,
2013-04-27 17:08:00,83.8,62.2,30.12,WSW,247,0.0,0.0,48,0.00,,,0.00,WUHU21623XXSP,2013-04-27 21:08:00,
2013-04-27 17:13:00,84.0,61.7,30.12,West,270,0.0,0.0,47,0.00,,,0.00,WUHU21623XXSP,2013-04-27 21:13:00,
2013-04-27 17:18:00,84.4,62.1,30.12,WSW,247,0.0,0.0,47,0.00,,,0.00,WUHU21623XXSP,2013-04-27 21:18:00,
2013-04-27 17:23:00,84.4,60.7,30.12,West,270,0.0,0.0,45,0.00,,,0.00,WUHU21623XXSP,2013-04-27 21:23:00,
2013-04-27 17:28:00,84.4,61.4,30.12,WSW,247,0.0,0.0,46,0.00,,,0.00,WUHU21623XXSP,2013-04-27 21:28:00,
2013-04-27 17:33:00,84.9,61.9,30.12,WSW,247,0.0,0.0,46,0.00,,,0.00,WUHU21623XXSP,2013-04-27 21:33:00,
2013-04-27 17:38:00,85.5,61.0,30.12,WSW,247,0.0,0.0,44,0.00,,,0.00,WUHU21623XXSP,2013-04-27 21:38:00,
2013-04-27 17:43:00,87.4,62.0,30.11,WSW,247,0.0,0.0,43,0.00,,,0.00,WUHU21623XXSP,2013-04-27 21:43:00,
2013-04-27 17:48:00,89.6,60.2,30.11,WSW,247,0.0,0.0,38,0.00,,,0.00,WUHU21623XXSP,2013-04-27 21:48:00,
2013-04-27 17:53:00,91.8,59.5,30.11,WSW,247,0.0,0.0,34,0.00,,,0.00,WUHU21623XXSP,2013-04-27 21:53:00,
2013-04-27 17:58:00,93.6,57.4,30.11,NNW,337,0.0,0.0,30,0.00,,,0.00,WUHU21623XXSP,2013-04-27 21:58:00,
2013-04-27 18:03:00,93.2,57.0,30.11,WSW,247,0.0,0.0,30,0.00,,,0.00,WUHU21623XXSP,2013-04-27 22:03:00,
2013-04-27 18:08:00,93.0,56.9,30.11,WSW,247,0.0,0.0,30,0.00,,,0.00,WUHU21623XXSP,2013-04-27 22:08:00,
2013-04-27 18:13:00,90.9,55.0,30.11,WSW,247,0.0,0.0,30,0.00,,,0.00,WUHU21623XXSP,2013-04-27 22:13:00,
2013-04-27 18:18:00,89.1,54.4,30.11,WSW,247,0.0,0.0,31,0.00,,,0.00,WUHU21623XXSP,2013-04-27 22:18:00,
2013-04-27 18:23:00,88.2,55.5,30.11,WSW,247,0.0,0.0,33,0.00,,,0.00,WUHU21623XXSP,2013-04-27 22:23:00,
2013-04-27 18:28:00,86.7,55.1,30.11,WSW,247,0.0,0.0,34,0.00,,,0.00,WUHU21623XXSP,2013-04-27 22:28:00,
2013-04-27 18:33:00,84.7,55.0,30.11,WSW,247,0.0,0.0,36,0.00,,,0.00,WUHU21623XXSP,2013-04-27 22:33:00,
2013-04-27 18:38:00,83.3,56.1,30.11,WSW,247,0.0,0.0,40,0.00,,,0.00,WUHU21623XXSP,2013-04-27 22:38:00,
2013-04-27 18:43:00,81.5,56.7,30.10,WSW,247,0.0,0.0,43,0.00,,,0.00,WUHU21623XXSP,2013-04-27 22:43:00,
2013-04-27 18:48:00,80.8,57.5,30.10,WSW,247,0.0,0.0,45,0.00,,,0.00,WUHU21623XXSP,2013-04-27 22:48:00,
2013-04-27 18:53:00,80.2,57.6,30.10,WSW,247,0.0,0.0,46,0.00,,,0.00,WUHU21623XXSP,2013-04-27 22:53:00,
2013-04-27 18:58:00,79.5,56.9,30.10,WSW,247,0.0,0.0,46,0.00,,,0.00,WUHU21623XXSP,2013-04-27 22:58:00,
2013-04-27 19:03:00,79.2,58.0,30.10,WSW,247,0.0,0.0,48,0.00,,,0.00,WUHU21623XXSP,2013-04-27 23:03:00,
2013-04-27 19:08:00,79.0,58.4,30.10,WSW,247,0.0,0.0,49,0.00,,,0.00,WUHU21623XXSP,2013-04-27 23:08:00,
2013-04-27 19:13:00,78.8,59.5,30.10,NW,315,0.0,0.0,51,0.00,,,0.00,WUHU21623XXSP,2013-04-27 23:13:00,
2013-04-27 19:18:00,78.4,59.1,30.10,NNW,337,0.0,0.0,51,0.00,,,0.00,WUHU21623XXSP,2013-04-27 23:18:00,
2013-04-27 19:23:00,78.3,59.0,30.10,NW,315,0.0,0.0,51,0.00,,,0.00,WUHU21623XXSP,2013-04-27 23:23:00,
2013-04-27 19:28:00,77.9,58.6,30.10,NW,315,0.0,0.0,51,0.00,,,0.00,WUHU21623XXSP,2013-04-27 23:28:00,
2013-04-27 19:33:00,77.9,58.6,30.10,NW,315,0.0,0.0,51,0.00,,,0.00,WUHU21623XXSP,2013-04-27 23:33:00,
2013-04-27 19:38:00,77.5,59.4,30.10,NNW,337,0.0,0.0,54,0.00,,,0.00,WUHU21623XXSP,2013-04-27 23:38:00,
2013-04-27 19:43:00,77.4,59.3,30.10,NNW,337,0.0,0.0,54,0.00,,,0.00,WUHU21623XXSP,2013-04-27 23:43:00,
2013-04-27 19:48:00,77.2,59.2,30.10,NW,315,0.0,0.0,54,0.00,,,0.00,WUHU21623XXSP,2013-04-27 23:48:00,
2013-04-27 19:53:00,76.6,58.6,30.10,NNW,337,0.0,0.0,54,0.00,,,0.00,WUHU21623XXSP,2013-04-27 23:53:00,
2013-04-27 19:58:00,76.6,58.0,30.10,NNW,337,0.0,0.0,52,0.00,,,0.00,WUHU21623XXSP,2013-04-27 23:58:00,
2013-04-27 20:03:00,76.3,57.7,30.10,NNW,337,0.0,0.0,52,0.00,,,0.00,WUHU21623XXSP,2013-04-28 00:03:00,
2013-04-27 20:08:00,76.1,57.6,30.10,NNW,337,0.0,0.0,52,0.00,,,0.00,WUHU21623XXSP,2013-04-28 00:08:00,
2013-04-27 20:13:00,75.7,58.3,30.10,NNW,337,0.0,0.0,55,0.00,,,0.00,WUHU21623XXSP,2013-04-28 00:13:00,
2013-04-27 20:18:00,75.6,58.2,30.10,NNW,337,0.0,0.0,55,0.00,,,0.00,WUHU21623XXSP,2013-04-28 00:18:00,
2013-04-27 20:23:00,75.2,58.4,30.10,NW,315,0.0,0.0,56,0.00,,,0.00,WUHU21623XXSP,2013-04-28 00:23:00,
2013-04-27 20:28:00,74.8,58.0,30.10,NW,315,0.0,0.0,56,0.00,,,0.00,WUHU21623XXSP,2013-04-28 00:28:00,
2013-04-27 20:33:00,74.7,57.9,30.10,NW,315,0.0,0.0,56,0.00,,,0.00,WUHU21623XXSP,2013-04-28 00:33:00,
2013-04-27 20:38:00,74.3,58.1,30.11,NW,315,0.0,0.0,57,0.00,,,0.00,WUHU21623XXSP,2013-04-28 00:38:00,
2013-04-27 20:43:00,74.3,58.6,30.11,NW,315,0.0,0.0,58,0.00,,,0.00,WUHU21623XXSP,2013-04-28 00:43:00,
2013-04-27 20:48:00,74.1,59.0,30.11,NW,315,0.0,0.0,59,0.00,,,0.00,WUHU21623XXSP,2013-04-28 00:48:00,
2013-04-27 20:53:00,73.8,59.2,30.11,NW,315,0.0,0.0,60,0.00,,,0.00,WUHU21623XXSP,2013-04-28 00:53:00,
2013-04-27 20:58:00,73.6,59.0,30.11,NNW,337,0.0,0.0,60,0.00,,,0.00,WUHU21623XXSP,2013-04-28 00:58:00,
2013-04-27 21:03:00,73.6,59.5,30.11,NNW,337,0.0,0.0,61,0.00,,,0.00,WUHU21623XXSP,2013-04-28 01:03:00,
2013-04-27 21:08:00,73.4,59.3,30.11,NNW,337,0.0,0.0,61,0.00,,,0.00,WUHU21623XXSP,2013-04-28 01:08:00,
2013-04-27 21:13:00,73.2,59.1,30.11,NNW,337,0.0,0.0,61,0.00,,,0.00,WUHU21623XXSP,2013-04-28 01:13:00,
2013-04-27 21:18:00,73.0,59.4,30.11,NNW,337,0.0,0.0,62,0.00,,,0.00,WUHU21623XXSP,2013-04-28 01:18:00,
2013-04-27 21:23:00,72.9,59.3,30.11,NNW,337,0.0,0.0,62,0.00,,,0.00,WUHU21623XXSP,2013-04-28 01:23:00,
2013-04-27 21:28:00,72.7,59.6,30.11,NNW,337,0.0,0.0,63,0.00,,,0.00,WUHU21623XXSP,2013-04-28 01:28:00,
2013-04-27 21:33:00,72.5,59.4,30.12,North,0,0.0,0.0,63,0.00,,,0.00,WUHU21623XXSP,2013-04-28 01:33:00,
2013-04-27 21:38:00,72.3,59.3,30.12,NNE,22,0.0,0.0,63,0.00,,,0.00,WUHU21623XXSP,2013-04-28 01:38:00,
2013-04-27 21:43:00,72.3,59.7,30.12,NNE,22,0.0,0.0,64,0.00,,,0.00,WUHU21623XXSP,2013-04-28 01:43:00,
2013-04-27 21:48:00,72.0,59.4,30.12,NNE,22,0.0,0.0,64,0.00,,,0.00,WUHU21623XXSP,2013-04-28 01:48:00,
2013-04-27 21:53:00,71.8,59.3,30.12,NNE,22,0.0,0.0,64,0.00,,,0.00,WUHU21623XXSP,2013-04-28 01:53:00,
2013-04-27 21:58:00,71.8,59.3,30.12,NE,45,0.0,0.0,64,0.00,,,0.00,WUHU21623XXSP,2013-04-28 01:58:00,
2013-04-27 22:03:00,71.6,59.5,30.12,North,0,0.0,0.0,65,0.00,,,0.00,WUHU21623XXSP,2013-04-28 02:03:00,
2013-04-27 22:08:00,71.8,59.3,30.13,North,0,0.0,0.0,64,0.00,,,0.00,WUHU21623XXSP,2013-04-28 02:08:00,
2013-04-27 22:13:00,71.8,59.3,30.13,North,0,0.0,0.0,64,0.00,,,0.00,WUHU21623XXSP,2013-04-28 02:13:00,
2013-04-27 22:18:00,71.8,58.8,30.12,ENE,67,0.0,0.0,63,0.00,,,0.00,WUHU21623XXSP,2013-04-28 02:18:00,
2013-04-27 22:23:00,71.8,58.8,30.13,ENE,67,0.0,0.0,63,0.00,,,0.00,WUHU21623XXSP,2013-04-28 02:23:00,
2013-04-27 22:28:00,71.6,58.6,30.13,ENE,67,0.0,0.0,63,0.00,,,0.00,WUHU21623XXSP,2013-04-28 02:28:00,
2013-04-27 22:33:00,71.6,58.1,30.13,ENE,67,0.0,0.0,62,0.00,,,0.00,WUHU21623XXSP,2013-04-28 02:33:00,
2013-04-27 22:38:00,71.2,57.7,30.13,ENE,67,0.0,0.0,62,0.00,,,0.00,WUHU21623XXSP,2013-04-28 02:38:00,
2013-04-27 22:43:00,71.2,57.7,30.13,ENE,67,0.0,0.0,62,0.00,,,0.00,WUHU21623XXSP,2013-04-28 02:43:00,
2013-04-27 22:48:00,70.9,57.4,30.13,ENE,67,0.0,0.0,62,0.00,,,0.00,WUHU21623XXSP,2013-04-28 02:48:00,
2013-04-27 22:53:00,70.9,57.4,30.13,ENE,67,0.0,0.0,62,0.00,,,0.00,WUHU21623XXSP,2013-04-28 02:53:00,
2013-04-27 22:58:00,70.7,57.3,30.13,ENE,67,0.0,0.0,62,0.00,,,0.00,WUHU21623XXSP,2013-04-28 02:58:00,
2013-04-27 23:03:00,70.5,57.1,30.13,East,90,0.0,0.0,62,0.00,,,0.00,WUHU21623XXSP,2013-04-28 03:03:00,
2013-04-27 23:08:00,70.5,57.5,30.13,East,90,0.0,0.0,63,0.00,,,0.00,WUHU21623XXSP,2013-04-28 03:08:00,
2013-04-27 23:13:00,70.5,57.5,30.13,East,90,0.0,0.0,63,0.00,,,0.00,WUHU21623XXSP,2013-04-28 03:13:00,
2013-04-27 23:18:00,70.3,56.9,30.13,East,90,0.0,0.0,62,0.00,,,0.00,WUHU21623XXSP,2013-04-28 03:18:00,
2013-04-27 23:23:00,70.2,56.8,30.14,East,90,0.0,0.0,62,0.00,,,0.00,WUHU21623XXSP,2013-04-28 03:23:00,
2013-04-27 23:28:00,70.2,56.8,30.14,East,90,0.0,0.0,62,0.00,,,0.00,WUHU21623XXSP,2013-04-28 03:28:00,
2013-04-27 23:33:00,70.0,56.1,30.14,East,90,0.0,0.0,61,0.00,,,0.00,WUHU21623XXSP,2013-04-28 03:33:00,
2013-04-27 23:38:00,70.0,56.1,30.14,East,90,0.0,0.0,61,0.00,,,0.00,WUHU21623XXSP,2013-04-28 03:38:00,
2013-04-27 23:43:00,70.0,56.1,30.15,East,90,0.0,0.0,61,0.00,,,0.00,WUHU21623XXSP,2013-04-28 03:43:00,
2013-04-27 23:48:00,70.0,55.6,30.15,East,90,0.0,0.0,60,0.00,,,0.00,WUHU21623XXSP,2013-04-28 03:48:00,
2013-04-27 23:53:00,69.8,55.4,30.14,East,90,0.0,0.0,60,0.00,,,0.00,WUHU21623XXSP,2013-04-28 03:53:00,
2013-04-27 23:58:00,69.8,54.9,30.14,ENE,67,0.0,0.0,59,0.00,,,0.00,WUHU21623XXSP,2013-04-28 03:58:00,